Date String (YYYY-MM-DD hh:mm:ss) UTC,Instrument flags,absolute air pressure of the measurement (hPa),sample flow rate (lpm),inlet stack bypass flow (lpm),air temperature of the measurement (°C),ambient temperature measured by the external sensor (°C),aerosol sample conditioner tube jacket temperature (°C),OPC LED temperature (°C),internal box temperature (°C),relative humidity of the measurement (%),span deviation,mass concentration of particles derived from Lorenz-Mie calculation of OPC scattering (μg/m³),mass concentration of particles derived from Lorenz-Mie calculation of OPC scattering (μg/m³),mass concentration of particles derived from Lorenz-Mie calculation of OPC scattering (μg/m³)
DateTimeUTC,F1_M11,P_M11,Q1_M11,Q2_M11,T1_M11,T2_M11,T3_M11,T4_M11,T5_M11,U1_M11,ZSPAN_M11,X2_M11,X0_M11,X1_M11
2024-03-30 08:00:00,SystemResetWarning,0825.2,5.00,000.00,020.6,020.0,000.0,029.1,022.4,29.1,-000.6,0010.26,0012.62,0009.91
2024-03-30 08:01:00,SystemResetWarning,0825.2,5.00,000.00,020.6,020.0,000.0,029.1,022.4,29.2,-000.6,0010.29,0012.20,0009.94
2024-03-30 08:02:00,SystemResetWarning,0825.2,5.01,000.00,020.6,020.0,000.0,029.1,022.4,29.3,-000.8,0010.35,0012.46,0009.99
2024-03-30 08:03:00,SystemResetWarning,0825.2,5.00,000.00,020.6,020.0,000.0,029.1,022.4,29.4,-000.8,0010.42,0012.56,0010.03
2024-03-30 08:04:00,SystemResetWarning,0825.2,4.99,000.00,020.6,020.0,000.0,029.1,022.4,29.3,-000.7,0010.49,0012.69,0010.08
2024-03-30 08:05:00,SystemResetWarning,0825.2,5.00,000.00,020.6,020.0,000.0,029.1,022.4,29.2,-000.6,0010.58,0013.00,0010.15
2024-03-30 08:06:00,SystemResetWarning,0825.2,4.99,000.00,020.6,020.0,000.0,029.1,022.4,29.2,-000.3,0010.63,0012.98,0010.20
2024-03-30 08:07:00,SystemResetWarning,0825.2,5.00,000.00,020.6,020.0,000.0,029.1,022.4,29.2,-000.1,0010.68,0012.70,0010.26
2024-03-30 08:08:00,SystemResetWarning,0825.2,5.01,000.00,020.6,020.0,000.0,029.1,022.4,29.2,-000.2,0010.77,0012.82,0010.35
2024-03-30 08:09:00,SystemResetWarning,0825.2,5.00,000.00,020.6,020.0,000.0,029.1,022.4,29.2,0000.5,0010.84,0012.94,0010.41
2024-03-30 08:10:00,SystemResetWarning,0825.2,5.01,000.00,020.6,020.0,000.0,029.1,022.4,29.3,0000.7,0010.87,0012.98,0010.42
2024-03-30 08:11:00,SystemResetWarning,0825.2,5.01,000.00,020.6,020.0,000.0,029.1,022.4,29.3,0000.9,0010.86,0013.02,0010.39
2024-03-30 08:12:00,SystemResetWarning,0825.1,5.00,000.00,020.6,020.0,000.0,029.1,022.4,29.3,0001.0,0010.85,0012.94,0010.36
2024-03-30 08:13:00,SystemResetWarning,0825.1,5.00,000.00,020.6,020.0,000.0,029.1,022.4,29.3,0001.4,0010.83,0012.73,0010.34
2024-03-30 08:14:00,SystemResetWarning,0825.1,5.00,000.00,020.6,020.0,000.0,029.1,022.4,29.2,0001.6,0010.81,0013.18,0010.30
2024-03-30 08:15:00,SystemResetWarning,0825.1,5.00,000.00,020.6,020.0,000.0,029.1,022.4,29.2,0000.9,0010.78,0013.33,0010.28
2024-03-30 08:16:00,SystemResetWarning,0825.1,5.00,000.00,020.6,020.0,000.0,029.1,022.4,29.2,-000.0,0010.76,0013.65,0010.26
2024-03-30 08:17:00,SystemResetWarning,0825.1,4.99,000.00,020.6,020.0,000.0,029.1,022.4,29.2,-000.4,0010.74,0013.69,0010.25
2024-03-30 08:18:00,SystemResetWarning,0825.1,5.00,000.00,020.6,020.0,000.0,029.1,022.4,29.2,-000.4,0010.71,0013.61,0010.23
2024-03-30 08:19:00,SystemResetWarning,0825.1,5.00,000.00,020.6,020.0,000.0,029.1,022.4,29.2,-000.1,0010.67,0013.55,0010.19
2024-03-30 08:20:00,SystemResetWarning,0825.1,5.00,000.00,020.6,020.0,000.0,029.1,022.4,29.2,-000.6,0010.62,0013.41,0010.17
2024-03-30 08:21:00,SystemResetWarning,0825.1,5.00,000.00,020.6,020.0,000.0,029.1,022.4,29.4,-001.2,0010.62,0013.44,0010.17
2024-03-30 08:22:00,SystemResetWarning,0825.0,5.00,000.00,020.6,020.0,000.0,029.1,022.4,29.3,-001.7,0010.63,0013.57,0010.18
2024-03-30 08:23:00,SystemResetWarning,0825.0,5.01,000.00,020.6,020.0,000.0,029.1,022.4,29.3,-001.6,0010.72,0013.82,0010.23
2024-03-30 08:24:00,SystemResetWarning,0824.9,5.00,000.00,020.6,020.0,000.0,029.1,022.4,29.3,-001.7,0010.74,0013.79,0010.26
2024-03-30 08:25:00,SystemResetWarning,0824.9,5.00,000.00,020.6,020.0,000.0,029.1,022.4,29.3,-001.9,0010.74,0013.39,0010.29
2024-03-30 08:26:00,SystemResetWarning,0825.0,4.99,000.00,020.6,020.0,000.0,029.1,022.4,29.3,-001.6,0010.81,0013.76,0010.35
2024-03-30 08:27:00,SystemResetWarning,0825.0,5.00,000.00,020.6,019.9,000.0,029.1,022.4,29.3,-001.3,0010.95,0013.55,0010.47
2024-03-30 08:28:00,SystemResetWarning,0825.0,5.00,000.00,020.6,019.9,000.0,029.1,022.4,29.3,-001.0,0011.03,0013.40,0010.52
2024-03-30 08:29:00,SystemResetWarning,0825.0,5.00,000.00,020.6,019.9,000.0,029.1,022.4,29.3,-001.0,0011.10,0013.57,0010.56
2024-03-30 08:30:00,SystemResetWarning,0825.0,5.00,000.00,020.6,019.9,000.0,029.1,022.4,29.3,-001.0,0011.09,0014.27,0010.54
2024-03-30 08:31:00,SystemResetWarning,0825.0,5.01,000.00,020.6,019.9,000.0,029.1,022.4,29.5,-001.1,0011.00,0014.45,0010.49
2024-03-30 08:32:00,SystemResetWarning,0825.0,5.01,000.00,020.6,019.9,000.0,029.1,022.4,29.8,-001.3,0010.93,0014.52,0010.44
2024-03-30 08:33:00,SystemResetWarning,0825.0,5.00,000.00,020.6,019.9,000.0,029.1,022.4,29.5,-001.2,0010.91,0014.67,0010.43
2024-03-30 08:34:00,SystemResetWarning,0825.0,5.00,000.00,020.6,019.9,000.0,029.1,022.4,29.4,-001.1,0010.82,0015.07,0010.37
2024-03-30 08:35:00,SystemResetWarning,0825.0,5.00,000.00,020.6,019.9,000.0,029.1,022.4,29.4,-001.0,0010.80,0015.17,0010.34
2024-03-30 08:36:00,SystemResetWarning,0825.0,5.00,000.00,020.5,019.9,000.0,029.1,022.4,29.3,-001.2,0010.85,0015.41,0010.36
2024-03-30 08:37:00,SystemResetWarning,0825.0,4.99,000.00,020.5,019.9,000.0,029.1,022.4,29.3,-001.2,0010.82,0014.93,0010.33
2024-03-30 08:38:00,SystemResetWarning,0825.0,5.00,000.00,020.5,019.9,000.0,029.1,022.4,29.3,-001.0,0010.67,0014.71,0010.22
2024-03-30 08:39:00,SystemResetWarning,0825.0,5.00,000.00,020.5,019.9,000.0,029.1,022.3,29.3,-000.6,0010.61,0014.63,0010.18
2024-03-30 08:40:00,SystemResetWarning,0825.0,5.00,000.00,020.5,019.9,000.0,029.1,022.3,29.3,-000.2,0010.60,0014.98,0010.16
2024-03-30 08:41:00,SystemResetWarning,0824.9,5.01,000.00,020.5,019.9,000.0,029.1,022.3,29.3,-000.3,0010.64,0014.88,0010.20
2024-03-30 08:42:00,SystemResetWarning,0824.9,5.00,000.00,020.5,019.9,000.0,029.1,022.3,29.3,-000.3,0010.75,0015.40,0010.26
2024-03-30 08:43:00,SystemResetWarning,0825.0,5.01,000.00,020.5,019.9,000.0,029.1,022.3,29.3,-000.0,0010.85,0015.32,0010.33
2024-03-30 08:44:00,SystemResetWarning,0824.9,4.99,000.00,020.5,019.9,000.0,029.1,022.3,29.3,0000.3,0010.89,0015.08,0010.38
2024-03-30 08:45:00,SystemResetWarning,0824.9,5.00,000.00,020.5,019.9,000.0,029.1,022.3,29.3,0000.1,0010.92,0014.45,0010.42
2024-03-30 08:46:00,SystemResetWarning,0824.9,5.00,000.00,020.5,019.9,000.0,029.1,022.3,29.3,-000.2,0010.98,0014.70,0010.44
2024-03-30 08:47:00,SystemResetWarning,0824.9,5.00,000.00,020.5,019.9,000.0,029.1,022.3,29.3,-000.1,0011.00,0014.90,0010.45
2024-03-30 08:48:00,SystemResetWarning,0824.9,5.00,000.00,020.5,019.9,000.0,029.1,022.3,29.3,-000.6,0011.01,0015.68,0010.44
2024-03-30 08:49:00,SystemResetWarning,0824.8,5.00,000.00,020.5,019.9,000.0,029.1,022.3,29.2,-000.7,0010.99,0016.14,0010.41
2024-03-30 08:50:00,SystemResetWarning,0824.9,5.00,000.00,020.5,019.9,000.0,029.1,022.3,29.3,-001.3,0011.00,0016.27,0010.39
2024-03-30 08:51:00,SystemResetWarning,0824.9,5.00,000.00,020.5,019.9,000.0,029.1,022.3,29.3,-001.6,0010.99,0015.92,0010.38
2024-03-30 08:52:00,SystemResetWarning,0824.9,4.99,000.00,020.5,019.9,000.0,029.1,022.3,29.3,-001.4,0010.95,0015.62,0010.34
2024-03-30 08:53:00,SystemResetWarning,0824.9,5.00,000.00,020.5,019.9,000.0,029.1,022.3,29.3,-001.4,0010.99,0015.59,0010.33
2024-03-30 08:54:00,SystemResetWarning,0824.9,5.01,000.00,020.5,019.9,000.0,029.1,022.3,29.3,-001.5,0011.01,0016.33,0010.31
2024-03-30 08:55:00,SystemResetWarning,0824.8,5.01,000.00,020.5,019.9,000.0,029.1,022.3,29.3,-002.0,0011.01,0016.53,0010.30
2024-03-30 08:56:00,SystemResetWarning,0824.9,4.99,000.00,020.5,019.9,000.0,029.1,022.3,29.3,-002.2,0011.06,0017.17,0010.30
2024-03-30 08:57:00,SystemResetWarning,0824.9,5.00,000.00,020.5,019.9,000.0,029.1,022.3,29.4,-002.0,0011.09,0017.63,0010.32
2024-03-30 08:58:00,SystemResetWarning,0824.9,4.99,000.00,020.5,019.9,000.0,029.1,022.3,29.6,-002.0,0011.06,0017.54,0010.29
2024-03-30 08:59:00,SystemResetWarning,0824.9,5.01,000.00,020.5,019.9,000.0,029.0,022.3,29.4,-001.6,0011.09,0017.09,0010.29
